Year,Month,Day,Hour,Minute,Value (Times are PST for temperature in C)
2009,08,24,00,00,13.10
2009,08,24,00,01,13.00
2009,08,24,00,02,13.00
2009,08,24,00,03,13.00
2009,08,24,00,04,13.00
2009,08,24,00,05,13.00
2009,08,24,00,06,13.00
2009,08,24,00,07,13.00
2009,08,24,00,08,13.00
2009,08,24,00,09,13.00
2009,08,24,00,10,13.00
2009,08,24,00,11,12.90
2009,08,24,00,12,12.90
2009,08,24,00,13,12.90
2009,08,24,00,14,12.90
2009,08,24,00,15,12.90
2009,08,24,00,16,12.80
2009,08,24,00,17,12.80
2009,08,24,00,18,12.80
2009,08,24,00,19,12.80
2009,08,24,00,20,12.80
2009,08,24,00,21,12.80
2009,08,24,00,22,12.80
2009,08,24,00,23,12.80
2009,08,24,00,24,12.80
2009,08,24,00,25,12.70
2009,08,24,00,26,12.70
2009,08,24,00,27,12.70
2009,08,24,00,28,12.70
2009,08,24,00,29,12.70
2009,08,24,00,30,12.60
2009,08,24,00,31,12.60
2009,08,24,00,32,12.60
2009,08,24,00,33,12.60
2009,08,24,00,34,12.60
2009,08,24,00,35,12.60
2009,08,24,00,36,12.50
2009,08,24,00,37,12.50
2009,08,24,00,38,12.50
2009,08,24,00,39,12.50
2009,08,24,00,40,12.50
2009,08,24,00,41,12.40
2009,08,24,00,42,12.40
2009,08,24,00,43,12.40
2009,08,24,00,44,12.40
2009,08,24,00,45,12.40
2009,08,24,00,46,12.40
2009,08,24,00,47,12.40
2009,08,24,00,48,12.30
2009,08,24,00,49,12.30
2009,08,24,00,50,12.30
2009,08,24,00,51,12.30
2009,08,24,00,52,12.30
2009,08,24,00,53,12.30
2009,08,24,00,54,12.20
2009,08,24,00,55,12.20
2009,08,24,00,56,12.20
2009,08,24,00,57,12.20
2009,08,24,00,58,12.20
2009,08,24,00,59,12.20
2009,08,24,01,00,12.10
2009,08,24,01,01,12.00
2009,08,24,01,02,12.00
2009,08,24,01,03,12.00
2009,08,24,01,04,12.00
2009,08,24,01,05,11.90
2009,08,24,01,06,11.90
2009,08,24,01,07,11.90
2009,08,24,01,08,11.90
2009,08,24,01,09,11.80
2009,08,24,01,10,11.80
2009,08,24,01,11,11.80
2009,08,24,01,12,11.80
2009,08,24,01,13,11.80
2009,08,24,01,14,11.80
2009,08,24,01,15,11.80
2009,08,24,01,16,11.70
2009,08,24,01,17,11.70
2009,08,24,01,18,11.70
2009,08,24,01,19,11.70
2009,08,24,01,20,11.70
2009,08,24,01,21,11.70
2009,08,24,01,22,11.60
2009,08,24,01,23,11.60
2009,08,24,01,24,11.60
2009,08,24,01,25,11.60
2009,08,24,01,26,11.60
2009,08,24,01,27,11.60
2009,08,24,01,28,11.60
2009,08,24,01,29,11.60
2009,08,24,01,30,11.60
2009,08,24,01,31,11.60
2009,08,24,01,32,11.60
2009,08,24,01,33,11.60
2009,08,24,01,34,11.60
2009,08,24,01,35,11.60
2009,08,24,01,36,11.60
2009,08,24,01,37,11.50
2009,08,24,01,38,11.40
2009,08,24,01,39,11.40
2009,08,24,01,40,11.40
2009,08,24,01,41,11.40
2009,08,24,01,42,11.40
2009,08,24,01,43,11.40
2009,08,24,01,44,11.40
2009,08,24,01,45,11.40
2009,08,24,01,46,11.40
2009,08,24,01,47,11.40
2009,08,24,01,48,11.40
2009,08,24,01,49,11.40
2009,08,24,01,50,11.40
2009,08,24,01,51,11.40
2009,08,24,01,52,11.40
2009,08,24,01,53,11.40
2009,08,24,01,54,11.40
2009,08,24,01,55,11.40
2009,08,24,01,56,11.40
2009,08,24,01,57,11.50
2009,08,24,01,58,11.60
2009,08,24,01,59,11.60
2009,08,24,02,00,11.60
2009,08,24,02,01,11.60
2009,08,24,02,02,11.60
2009,08,24,02,03,11.60
2009,08,24,02,04,11.50
2009,08,24,02,05,11.40
2009,08,24,02,06,11.40
2009,08,24,02,07,11.40
2009,08,24,02,08,11.40
2009,08,24,02,09,11.40
2009,08,24,02,10,11.40
2009,08,24,02,11,11.30
2009,08,24,02,12,11.30
2009,08,24,02,13,11.30
2009,08,24,02,14,11.30
2009,08,24,02,15,11.20
2009,08,24,02,16,11.20
2009,08,24,02,17,11.20
2009,08,24,02,18,11.10
2009,08,24,02,19,11.10
2009,08,24,02,20,11.10
2009,08,24,02,21,11.10
2009,08,24,02,22,11.10
2009,08,24,02,23,11.10
2009,08,24,02,24,11.00
2009,08,24,02,25,10.90
2009,08,24,02,26,10.90
2009,08,24,02,27,10.90
2009,08,24,02,28,10.90
2009,08,24,02,29,10.90
2009,08,24,02,30,10.90
2009,08,24,02,31,10.90
2009,08,24,02,32,10.90
2009,08,24,02,33,10.90
2009,08,24,02,34,10.90
2009,08,24,02,35,10.80
2009,08,24,02,36,10.80
2009,08,24,02,37,10.80
2009,08,24,02,38,10.80
2009,08,24,02,39,10.70
2009,08,24,02,40,10.70
2009,08,24,02,41,10.70
2009,08,24,02,42,10.70
2009,08,24,02,43,10.70
2009,08,24,02,44,10.60
2009,08,24,02,45,10.60
2009,08,24,02,46,10.60
2009,08,24,02,47,10.60
2009,08,24,02,48,10.60
2009,08,24,02,49,10.60
2009,08,24,02,50,10.60
2009,08,24,02,51,10.60
2009,08,24,02,52,10.60
2009,08,24,02,53,10.60
2009,08,24,02,54,10.60
2009,08,24,02,55,10.60
2009,08,24,02,56,10.60
2009,08,24,02,57,10.60
2009,08,24,02,58,10.60
2009,08,24,02,59,10.60
2009,08,24,03,00,10.50
2009,08,24,03,01,10.40
2009,08,24,03,02,10.40
2009,08,24,03,03,10.40
2009,08,24,03,04,10.40
2009,08,24,03,05,10.40
2009,08,24,03,06,10.40
2009,08,24,03,07,10.40
2009,08,24,03,08,10.40
2009,08,24,03,09,10.40
2009,08,24,03,10,10.40
2009,08,24,03,11,10.40
2009,08,24,03,12,10.40
2009,08,24,03,13,10.40
2009,08,24,03,14,10.40
2009,08,24,03,15,10.40
2009,08,24,03,16,10.40
2009,08,24,03,17,10.40
2009,08,24,03,18,10.30
2009,08,24,03,19,10.30
2009,08,24,03,20,10.30
2009,08,24,03,21,10.30
2009,08,24,03,22,10.30
2009,08,24,03,23,10.30
2009,08,24,03,24,10.30
2009,08,24,03,25,10.30
2009,08,24,03,26,10.30
2009,08,24,03,27,10.30
2009,08,24,03,28,10.30
2009,08,24,03,29,10.30
2009,08,24,03,30,10.30
2009,08,24,03,31,10.30
2009,08,24,08,53,14.50
2009,08,24,08,54,14.50
2009,08,24,08,55,14.60
2009,08,24,08,56,14.60
2009,08,24,08,57,14.60
2009,08,24,08,58,14.60
2009,08,24,08,59,14.70
2009,08,24,09,00,14.70
2009,08,24,09,01,14.70
2009,08,24,09,02,14.70
2009,08,24,09,03,14.70
2009,08,24,09,04,14.80
2009,08,24,09,05,14.80
2009,08,24,09,06,14.80
2009,08,24,09,07,14.80
2009,08,24,09,08,14.90
2009,08,24,09,09,14.90
2009,08,24,09,10,14.90
2009,08,24,09,11,15.00
2009,08,24,09,12,15.10
2009,08,24,09,13,15.10
2009,08,24,09,14,15.10
2009,08,24,09,15,15.10
2009,08,24,09,16,15.20
2009,08,24,09,17,15.30
2009,08,24,09,18,15.30
2009,08,24,09,19,15.30
2009,08,24,09,20,15.30
2009,08,24,09,21,15.30
2009,08,24,09,22,15.30
2009,08,24,09,23,15.30
2009,08,24,09,24,15.30
2009,08,24,09,25,15.30
2009,08,24,09,26,15.30
2009,08,24,09,27,15.40
2009,08,24,09,28,15.40
2009,08,24,09,29,15.50
2009,08,24,09,30,15.50
2009,08,24,09,31,15.50
2009,08,24,09,32,15.60
2009,08,24,09,33,15.70
2009,08,24,09,34,15.70
2009,08,24,09,35,15.70
2009,08,24,09,36,15.70
2009,08,24,09,37,15.80
2009,08,24,09,38,15.80
2009,08,24,09,39,15.80
2009,08,24,09,40,15.80
2009,08,24,09,41,15.80
2009,08,24,09,42,15.70
2009,08,24,09,43,15.70
2009,08,24,09,44,15.70
2009,08,24,09,45,15.80
2009,08,24,09,46,15.80
2009,08,24,09,47,15.70
2009,08,24,09,48,15.80
2009,08,24,09,49,15.80
2009,08,24,09,50,15.80
2009,08,24,09,51,15.70
2009,08,24,09,52,15.70
2009,08,24,09,53,15.60
2009,08,24,09,54,15.60
2009,08,24,09,55,15.50
2009,08,24,09,56,15.60
2009,08,24,09,57,15.60
2009,08,24,09,58,15.70
2009,08,24,09,59,15.80
2009,08,24,10,00,15.90
2009,08,24,10,01,16.00
2009,08,24,10,02,16.10
2009,08,24,10,03,16.20
2009,08,24,10,04,16.30
2009,08,24,10,05,16.40
2009,08,24,10,06,16.60
2009,08,24,10,07,16.70
2009,08,24,10,08,16.70
2009,08,24,10,09,16.80
2009,08,24,10,10,16.90
2009,08,24,10,11,16.90
2009,08,24,10,12,17.00
2009,08,24,10,13,17.00
2009,08,24,10,14,17.00
2009,08,24,10,15,17.00
2009,08,24,10,16,17.00
2009,08,24,10,17,17.00
2009,08,24,10,18,16.80
2009,08,24,10,19,16.60
2009,08,24,10,20,16.40
2009,08,24,10,21,16.20
2009,08,24,10,22,16.10
2009,08,24,10,23,16.10
2009,08,24,10,24,16.10
2009,08,24,10,25,16.00
2009,08,24,10,26,15.90
2009,08,24,10,27,15.80
2009,08,24,10,28,15.70
2009,08,24,10,29,15.70
2009,08,24,10,30,15.70
2009,08,24,10,31,15.80
2009,08,24,10,32,16.00
2009,08,24,10,33,16.10
2009,08,24,10,34,16.30
2009,08,24,10,35,16.40
2009,08,24,10,36,16.50
2009,08,24,10,37,16.60
2009,08,24,10,38,16.70
2009,08,24,10,39,16.60
2009,08,24,10,40,16.70
2009,08,24,10,41,16.70
2009,08,24,10,42,16.70
2009,08,24,10,43,16.80
2009,08,24,10,44,16.90
2009,08,24,10,45,17.00
2009,08,24,10,46,16.90
2009,08,24,10,47,16.90
2009,08,24,10,48,16.90
2009,08,24,10,49,16.90
2009,08,24,10,50,16.90
2009,08,24,10,51,16.90
2009,08,24,10,52,17.00
2009,08,24,10,53,17.10
2009,08,24,10,54,17.10
2009,08,24,10,55,17.10
2009,08,24,10,56,17.20
2009,08,24,10,57,17.20
2009,08,24,10,58,17.30
2009,08,24,10,59,17.30
2009,08,24,11,00,17.30
2009,08,24,11,01,17.30
2009,08,24,11,02,17.30
2009,08,24,11,03,17.30
2009,08,24,11,04,17.40
2009,08,24,11,05,17.40
2009,08,24,11,06,17.40
2009,08,24,11,07,17.40
2009,08,24,11,08,17.40
2009,08,24,11,09,17.40
2009,08,24,11,10,17.50
2009,08,24,11,11,17.60
2009,08,24,11,12,17.70
2009,08,24,11,13,17.60
2009,08,24,11,14,17.50
2009,08,24,11,15,17.30
2009,08,24,11,16,17.30
2009,08,24,11,17,17.20
2009,08,24,11,18,17.10
2009,08,24,11,19,17.00
2009,08,24,11,20,17.10
2009,08,24,11,21,17.20
2009,08,24,11,22,17.30
2009,08,24,11,23,17.30
2009,08,24,11,24,17.30
2009,08,24,11,25,17.30
2009,08,24,11,26,17.40
2009,08,24,11,27,17.50
2009,08,24,11,28,17.60
2009,08,24,11,29,17.60
2009,08,24,11,30,17.70
2009,08,24,11,31,17.80
2009,08,24,11,32,17.90
2009,08,24,11,33,17.90
2009,08,24,11,34,17.90
2009,08,24,11,35,17.70
2009,08,24,11,36,17.70
2009,08,24,11,37,17.80
2009,08,24,11,38,17.80
2009,08,24,11,39,17.80
2009,08,24,11,40,17.80
2009,08,24,11,41,17.90
2009,08,24,11,42,17.90
2009,08,24,11,43,17.80
2009,08,24,11,44,17.70
2009,08,24,11,45,17.70
2009,08,24,11,46,17.70
2009,08,24,11,47,17.80
2009,08,24,11,48,17.80
2009,08,24,11,49,17.90
2009,08,24,11,50,17.90
2009,08,24,11,51,17.90
2009,08,24,11,52,18.00
2009,08,24,11,53,18.10
2009,08,24,11,54,18.20
2009,08,24,11,55,18.20
2009,08,24,11,56,18.30
2009,08,24,11,57,18.30
2009,08,24,11,58,18.40
2009,08,24,11,59,18.40
2009,08,24,12,00,18.40
2009,08,24,12,01,18.50
2009,08,24,12,02,18.60
2009,08,24,12,03,18.60
2009,08,24,12,04,18.70
2009,08,24,12,05,18.70
2009,08,24,12,06,18.80
2009,08,24,12,07,18.70
2009,08,24,12,08,18.80
2009,08,24,12,09,18.70
2009,08,24,12,10,18.70
2009,08,24,12,11,18.60
2009,08,24,12,12,18.60
2009,08,24,12,13,18.70
2009,08,24,12,14,18.70
2009,08,24,12,15,18.80
2009,08,24,12,16,18.80
2009,08,24,12,17,18.80
2009,08,24,12,18,18.70
2009,08,24,12,19,18.50
2009,08,24,12,20,18.40
2009,08,24,12,21,18.40
2009,08,24,12,22,18.40
2009,08,24,12,23,18.40
2009,08,24,12,24,18.40
2009,08,24,12,25,18.40
2009,08,24,12,26,18.50
2009,08,24,12,27,18.50
2009,08,24,12,28,18.60
2009,08,24,12,29,18.70
2009,08,24,12,30,18.70
2009,08,24,12,31,18.70
2009,08,24,12,32,18.70
2009,08,24,12,33,18.70
2009,08,24,12,34,18.50
2009,08,24,12,35,18.20
2009,08,24,12,36,18.00
2009,08,24,12,37,17.80
2009,08,24,12,38,17.50
2009,08,24,12,39,17.40
2009,08,24,12,40,17.20
2009,08,24,12,41,17.00
2009,08,24,12,42,17.00
2009,08,24,12,43,16.90
2009,08,24,12,44,16.90
2009,08,24,12,45,16.90
2009,08,24,12,46,16.90
2009,08,24,12,47,16.80
2009,08,24,12,48,16.70
2009,08,24,12,49,16.50
2009,08,24,12,50,16.40
2009,08,24,12,51,16.30
2009,08,24,12,52,16.30
2009,08,24,12,53,16.30
2009,08,24,12,54,16.60
2009,08,24,12,55,16.70
2009,08,24,12,56,16.70
2009,08,24,12,57,16.70
2009,08,24,12,58,16.70
2009,08,24,12,59,16.80
2009,08,24,13,00,16.80
2009,08,24,13,01,16.70
2009,08,24,13,02,16.60
2009,08,24,13,03,16.50
2009,08,24,13,04,16.40
2009,08,24,13,05,16.30
2009,08,24,13,06,16.30
2009,08,24,13,07,16.40
2009,08,24,13,08,16.40
2009,08,24,13,09,16.20
2009,08,24,13,10,16.10
2009,08,24,13,11,16.00
2009,08,24,13,12,16.00
2009,08,24,13,13,16.10
2009,08,24,13,14,16.00
2009,08,24,13,15,15.80
2009,08,24,13,16,15.80
2009,08,24,13,17,15.80
2009,08,24,13,18,15.80
2009,08,24,13,19,15.90
2009,08,24,13,20,16.00
2009,08,24,13,21,16.10
2009,08,24,13,22,16.10
2009,08,24,13,23,16.00
2009,08,24,13,24,15.90
2009,08,24,13,25,15.90
2009,08,24,13,26,15.80
2009,08,24,13,27,15.80
2009,08,24,13,28,15.80
2009,08,24,13,29,15.90
2009,08,24,13,30,16.00
2009,08,24,13,31,16.10
2009,08,24,13,32,16.30
2009,08,24,13,33,16.50
2009,08,24,13,34,16.40
2009,08,24,13,35,16.30
2009,08,24,13,36,16.30
2009,08,24,13,37,16.00
2009,08,24,13,38,15.80
2009,08,24,13,39,15.60
2009,08,24,13,40,15.50
2009,08,24,13,41,15.40
2009,08,24,13,42,15.20
2009,08,24,13,43,14.90
2009,08,24,13,44,14.80
2009,08,24,13,45,14.80
2009,08,24,13,46,14.80
2009,08,24,13,47,14.70
2009,08,24,13,48,14.60
2009,08,24,13,49,14.60
2009,08,24,13,50,14.70
2009,08,24,13,51,14.80
2009,08,24,13,52,14.90
2009,08,24,13,53,14.90
2009,08,24,13,54,15.00
2009,08,24,13,55,14.90
2009,08,24,13,56,14.70
2009,08,24,13,57,14.50
2009,08,24,13,58,14.50
2009,08,24,13,59,14.50
2009,08,24,14,00,14.50
2009,08,24,14,01,14.60
2009,08,24,14,02,14.70
2009,08,24,14,03,14.80
2009,08,24,14,04,15.00
2009,08,24,14,05,15.00
2009,08,24,14,06,15.10
2009,08,24,14,07,15.10
2009,08,24,14,08,15.20
2009,08,24,14,09,15.40
2009,08,24,14,10,15.50
2009,08,24,14,11,15.40
2009,08,24,14,12,15.40
2009,08,24,14,13,15.50
2009,08,24,14,14,15.60
2009,08,24,14,15,15.60
2009,08,24,14,16,15.70
2009,08,24,14,17,15.70
2009,08,24,14,18,15.70
2009,08,24,14,19,15.80
2009,08,24,14,20,15.70
2009,08,24,14,21,15.70
2009,08,24,14,22,15.70
2009,08,24,14,23,15.70
2009,08,24,14,24,15.70
2009,08,24,14,25,15.70
2009,08,24,14,26,15.90
2009,08,24,14,27,16.00
2009,08,24,14,28,15.90
2009,08,24,14,29,15.90
2009,08,24,14,30,16.00
2009,08,24,14,31,16.10
2009,08,24,14,32,16.30
2009,08,24,14,33,16.40
2009,08,24,14,34,16.40
2009,08,24,14,35,16.40
2009,08,24,14,36,16.40
2009,08,24,14,37,16.40
2009,08,24,14,38,16.40
2009,08,24,14,39,16.60
2009,08,24,14,40,16.60
2009,08,24,14,41,16.60
2009,08,24,14,42,16.70
2009,08,24,14,43,16.70
2009,08,24,14,44,16.90
2009,08,24,14,45,17.00
2009,08,24,14,46,17.00
2009,08,24,14,47,17.00
2009,08,24,14,48,17.10
2009,08,24,14,49,17.10
2009,08,24,14,50,17.10
2009,08,24,14,51,17.20
2009,08,24,14,52,17.30
2009,08,24,14,53,17.30
2009,08,24,14,54,17.40
2009,08,24,14,55,17.60
2009,08,24,14,56,17.90
2009,08,24,14,57,17.90
2009,08,24,14,58,17.80
2009,08,24,14,59,17.90
2009,08,24,15,00,17.90
2009,08,24,15,01,17.90
2009,08,24,15,02,17.90
2009,08,24,15,03,17.90
2009,08,24,15,04,17.80
2009,08,24,15,05,17.60
2009,08,24,15,06,17.40
2009,08,24,15,07,17.30
2009,08,24,15,08,17.30
2009,08,24,15,09,17.30
2009,08,24,15,10,17.30
2009,08,24,15,11,17.40
2009,08,24,15,12,17.40
2009,08,24,15,13,17.40
2009,08,24,15,14,17.30
2009,08,24,15,15,17.30
2009,08,24,15,16,17.30
2009,08,24,15,17,17.40
2009,08,24,15,18,17.40
2009,08,24,15,19,17.40
2009,08,24,15,20,17.40
2009,08,24,15,21,17.40
2009,08,24,15,22,17.40
2009,08,24,15,23,17.50
2009,08,24,15,24,17.50
2009,08,24,15,25,17.50
2009,08,24,15,26,17.70
2009,08,24,15,27,17.80
2009,08,24,15,28,17.90
2009,08,24,15,29,18.20
2009,08,24,15,30,18.30
2009,08,24,15,31,18.20
2009,08,24,15,32,18.10
2009,08,24,15,33,18.00
2009,08,24,15,34,17.90
2009,08,24,15,35,17.90
2009,08,24,15,36,17.90
2009,08,24,15,37,17.90
2009,08,24,15,38,17.90
2009,08,24,15,39,17.90
2009,08,24,15,40,17.80
2009,08,24,15,41,17.70
2009,08,24,15,42,17.80
2009,08,24,15,43,17.90
2009,08,24,15,44,18.00
2009,08,24,15,45,18.10
2009,08,24,15,46,18.00
2009,08,24,15,47,17.90
2009,08,24,15,48,17.90
2009,08,24,15,49,17.90
2009,08,24,15,50,17.90
2009,08,24,15,51,17.90
2009,08,24,15,52,17.80
2009,08,24,15,53,17.70
2009,08,24,15,54,17.60
2009,08,24,15,55,17.60
2009,08,24,15,56,17.50
2009,08,24,15,57,17.50
2009,08,24,15,58,17.40
2009,08,24,15,59,17.40
2009,08,24,16,00,17.30
2009,08,24,16,01,17.40
2009,08,24,16,02,17.50
2009,08,24,16,03,17.50
2009,08,24,16,04,17.50
2009,08,24,16,05,17.60
2009,08,24,16,06,17.50
2009,08,24,16,07,17.50
2009,08,24,16,08,17.50
2009,08,24,16,09,17.40
2009,08,24,16,10,17.30
2009,08,24,16,11,17.30
2009,08,24,16,12,17.20
2009,08,24,16,13,17.30
2009,08,24,16,14,17.30
2009,08,24,16,15,17.30
2009,08,24,16,16,17.40
2009,08,24,16,17,17.50
2009,08,24,16,18,17.60
2009,08,24,16,19,17.60
2009,08,24,16,20,17.70
2009,08,24,16,21,17.80
2009,08,24,16,22,17.80
2009,08,24,16,23,17.80
2009,08,24,16,24,17.80
2009,08,24,16,25,17.80
2009,08,24,16,26,17.70
2009,08,24,16,27,17.90
2009,08,24,16,28,18.00
2009,08,24,16,29,18.10
2009,08,24,16,30,18.30
2009,08,24,16,31,18.40
2009,08,24,16,32,18.50
2009,08,24,16,33,18.50
2009,08,24,16,34,18.50
2009,08,24,16,35,18.50
2009,08,24,16,36,18.40
2009,08,24,16,37,18.40
2009,08,24,16,38,18.30
2009,08,24,16,39,18.20
2009,08,24,16,40,18.20
2009,08,24,16,41,18.20
2009,08,24,16,42,18.20
2009,08,24,16,43,18.20
2009,08,24,16,44,18.20
2009,08,24,16,45,18.10
2009,08,24,16,46,18.00
2009,08,24,16,47,17.90
2009,08,24,16,48,17.80
2009,08,24,16,49,17.70
2009,08,24,16,50,17.70
2009,08,24,16,51,17.60
2009,08,24,16,52,17.70
2009,08,24,16,53,17.80
2009,08,24,16,54,17.80
2009,08,24,16,55,17.90
2009,08,24,16,56,17.90
2009,08,24,16,57,17.90
2009,08,24,16,58,18.00
2009,08,24,16,59,18.20
2009,08,24,17,00,18.30
2009,08,24,17,01,18.40
2009,08,24,17,02,18.40
2009,08,24,17,03,18.30
2009,08,24,17,04,18.20
2009,08,24,17,05,18.10
2009,08,24,17,06,18.10
2009,08,24,17,07,18.10
2009,08,24,17,08,18.20
2009,08,24,17,09,18.20
2009,08,24,17,10,18.20
2009,08,24,17,11,18.40
2009,08,24,17,12,18.40
2009,08,24,17,13,18.50
2009,08,24,17,14,18.60
2009,08,24,17,15,18.60
2009,08,24,17,16,18.50
2009,08,24,17,17,18.50
2009,08,24,17,18,18.60
2009,08,24,17,19,18.70
2009,08,24,17,20,18.80
2009,08,24,17,21,18.70
2009,08,24,17,22,18.80
2009,08,24,17,23,18.80
2009,08,24,17,24,18.80
2009,08,24,17,25,18.90
2009,08,24,17,26,19.00
2009,08,24,17,27,19.10
2009,08,24,17,28,19.20
2009,08,24,17,29,19.30
2009,08,24,17,30,19.40
2009,08,24,17,31,19.40
2009,08,24,17,32,19.40
2009,08,24,17,33,19.30
2009,08,24,17,34,19.40
2009,08,24,17,35,19.40
2009,08,24,17,36,19.30
2009,08,24,17,37,19.30
2009,08,24,17,38,19.20
2009,08,24,17,39,19.20
2009,08,24,17,40,19.30
2009,08,24,17,41,19.40
2009,08,24,17,42,19.50
2009,08,24,17,43,19.60
2009,08,24,17,44,19.70
2009,08,24,17,45,19.70
2009,08,24,17,46,19.80
2009,08,24,17,47,19.80
2009,08,24,17,48,19.80
2009,08,24,17,49,19.80
2009,08,24,17,50,19.70
2009,08,24,17,51,19.60
2009,08,24,17,52,19.60
2009,08,24,17,53,19.60
2009,08,24,17,54,19.60
2009,08,24,17,55,19.50
2009,08,24,17,56,19.50
2009,08,24,17,57,19.50
2009,08,24,17,58,19.60
2009,08,24,17,59,19.60
2009,08,24,18,00,19.50
2009,08,24,18,01,19.50
2009,08,24,18,02,19.50
2009,08,24,18,03,19.50
2009,08,24,18,04,19.60
2009,08,24,18,05,19.70
2009,08,24,18,06,19.70
2009,08,24,18,07,19.70
2009,08,24,18,08,19.70
2009,08,24,18,09,19.70
2009,08,24,18,10,19.70
2009,08,24,18,11,19.70
2009,08,24,18,12,19.70
2009,08,24,18,13,19.70
2009,08,24,18,14,19.80
2009,08,24,18,15,19.70
2009,08,24,18,16,19.70
2009,08,24,18,17,19.70
2009,08,24,18,18,19.60
2009,08,24,18,19,19.50
2009,08,24,18,20,19.50
2009,08,24,18,21,19.50
2009,08,24,18,22,19.40
2009,08,24,18,23,19.40
2009,08,24,18,24,19.40
2009,08,24,18,25,19.30
2009,08,24,18,26,19.20
2009,08,24,18,27,19.10
2009,08,24,18,28,19.00
2009,08,24,18,29,18.80
2009,08,24,18,30,18.70
2009,08,24,18,31,18.70
2009,08,24,18,32,18.60
2009,08,24,18,33,18.60
2009,08,24,18,34,18.50
2009,08,24,18,35,18.50
2009,08,24,18,36,18.50
2009,08,24,18,37,18.50
2009,08,24,18,38,18.40
2009,08,24,18,39,18.40
2009,08,24,18,40,18.30
2009,08,24,18,41,18.20
2009,08,24,18,42,18.20
2009,08,24,18,43,18.30
2009,08,24,18,44,18.40
2009,08,24,18,45,18.40
2009,08,24,18,46,18.40
2009,08,24,18,47,18.50
2009,08,24,18,48,18.50
2009,08,24,18,49,18.60
2009,08,24,18,50,18.60
2009,08,24,18,51,18.70
2009,08,24,18,52,18.70
2009,08,24,18,53,18.80
2009,08,24,18,54,18.80
2009,08,24,18,55,18.80
2009,08,24,18,56,18.90
2009,08,24,18,57,18.90
2009,08,24,18,58,18.90
2009,08,24,18,59,19.00
2009,08,24,19,00,18.90
2009,08,24,19,01,18.90
2009,08,24,19,02,18.90
2009,08,24,19,03,18.90
2009,08,24,19,04,18.90
2009,08,24,19,05,18.80
2009,08,24,19,06,18.80
2009,08,24,19,07,18.80
2009,08,24,19,08,18.80
2009,08,24,19,09,18.80
2009,08,24,19,10,18.80
2009,08,24,19,11,18.80
2009,08,24,19,12,18.80
2009,08,24,19,13,18.80
2009,08,24,19,14,18.80
2009,08,24,19,15,18.80
2009,08,24,19,16,18.80
2009,08,24,19,17,18.80
2009,08,24,19,18,18.80
2009,08,24,19,19,18.80
2009,08,24,19,20,18.80
2009,08,24,19,21,18.80
2009,08,24,19,22,18.80
2009,08,24,19,23,18.80
2009,08,24,19,24,18.80
2009,08,24,19,25,18.70
2009,08,24,19,26,18.70
2009,08,24,19,27,18.70
2009,08,24,19,28,18.70
2009,08,24,19,29,18.70
2009,08,24,19,30,18.70
2009,08,24,19,31,18.70
2009,08,24,19,32,18.70
2009,08,24,19,33,18.70
2009,08,24,19,34,18.70
2009,08,24,19,35,18.80
2009,08,24,19,36,18.80
2009,08,24,19,37,18.80
2009,08,24,19,38,18.80
2009,08,24,19,39,18.90
2009,08,24,19,40,18.90
2009,08,24,19,41,18.90
2009,08,24,19,42,18.90
2009,08,24,19,43,18.90
2009,08,24,19,44,19.00
2009,08,24,19,45,19.10
2009,08,24,19,46,19.10
2009,08,24,19,47,19.10
2009,08,24,19,48,19.10
2009,08,24,19,49,19.10
2009,08,24,19,50,19.20
2009,08,24,19,51,19.20
2009,08,24,19,52,19.20
2009,08,24,19,53,19.20
2009,08,24,19,54,19.20
2009,08,24,19,55,19.20
2009,08,24,19,56,19.20
2009,08,24,19,57,19.30
2009,08,24,19,58,19.30
2009,08,24,19,59,19.30
2009,08,24,20,00,19.30
2009,08,24,20,01,19.20
2009,08,24,20,02,19.20
2009,08,24,20,03,19.20
2009,08,24,20,04,19.20
2009,08,24,20,05,19.20
2009,08,24,20,06,19.30
2009,08,24,20,07,19.30
2009,08,24,20,08,19.30
2009,08,24,20,09,19.30
2009,08,24,20,10,19.30
2009,08,24,20,11,19.30
2009,08,24,20,12,19.30
2009,08,24,20,13,19.30
2009,08,24,20,14,19.30
2009,08,24,20,15,19.30
2009,08,24,20,16,19.30
2009,08,24,20,17,19.30
2009,08,24,20,18,19.30
2009,08,24,20,19,19.30
2009,08,24,20,20,19.30
2009,08,24,20,21,19.30
2009,08,24,20,22,19.30
2009,08,24,20,23,19.30
2009,08,24,20,24,19.30
2009,08,24,20,25,19.30
2009,08,24,20,26,19.30
2009,08,24,20,27,19.30
2009,08,24,20,28,19.30
2009,08,24,20,29,19.30
2009,08,24,20,30,19.30
2009,08,24,20,31,19.30
2009,08,24,20,32,19.30
2009,08,24,20,33,19.20
2009,08,24,20,34,19.20
2009,08,24,20,35,19.20
2009,08,24,20,36,19.20
2009,08,24,20,37,19.20
2009,08,24,20,38,19.20
2009,08,24,20,39,19.20
2009,08,24,20,40,19.20
2009,08,24,20,41,19.20
2009,08,24,20,42,19.20
2009,08,24,20,43,19.20
2009,08,24,20,44,19.20
2009,08,24,20,45,19.10
2009,08,24,20,46,19.10
2009,08,24,20,47,19.10
2009,08,24,20,48,19.10
2009,08,24,20,49,19.10
2009,08,24,20,50,19.10
2009,08,24,20,51,19.10
2009,08,24,20,52,19.10
2009,08,24,20,53,19.10
2009,08,24,20,54,19.10
2009,08,24,20,55,19.00
2009,08,24,20,56,18.90
2009,08,24,20,57,18.90
2009,08,24,20,58,18.90
2009,08,24,20,59,18.90
2009,08,24,21,00,18.90
2009,08,24,21,01,18.90
2009,08,24,21,02,18.90
2009,08,24,21,03,18.90
2009,08,24,21,04,18.90
2009,08,24,21,05,18.90
2009,08,24,21,06,18.90
2009,08,24,21,07,18.90
2009,08,24,21,08,18.90
2009,08,24,21,09,18.90
2009,08,24,21,10,18.80
2009,08,24,21,11,18.80
2009,08,24,21,12,18.80
2009,08,24,21,13,18.80
2009,08,24,21,14,18.80
2009,08,24,21,15,18.80
2009,08,24,21,16,18.80
2009,08,24,21,17,18.80
2009,08,24,21,18,18.80
2009,08,24,21,19,18.80
2009,08,24,21,20,18.70
2009,08,24,21,21,18.70
2009,08,24,21,22,18.70
2009,08,24,21,23,18.70
2009,08,24,21,24,18.70
2009,08,24,21,25,18.70
2009,08,24,21,26,18.70
2009,08,24,21,27,18.70
2009,08,24,21,28,18.70
2009,08,24,21,29,18.60
2009,08,24,21,30,18.60
2009,08,24,21,31,18.60
2009,08,24,21,32,18.60
2009,08,24,21,33,18.60
2009,08,24,21,34,18.60
2009,08,24,21,35,18.60
2009,08,24,21,36,18.60
2009,08,24,21,37,18.60
2009,08,24,21,38,18.50
2009,08,24,21,39,18.50
2009,08,24,21,40,18.50
2009,08,24,21,41,18.50
2009,08,24,21,42,18.50
2009,08,24,21,43,18.50
2009,08,24,21,44,18.50
2009,08,24,21,45,18.50
2009,08,24,21,46,18.50
2009,08,24,21,47,18.50
2009,08,24,21,48,18.50
2009,08,24,21,49,18.50
2009,08,24,21,50,18.50
2009,08,24,21,51,18.50
2009,08,24,21,52,18.50
2009,08,24,21,53,18.40
2009,08,24,21,54,18.40
2009,08,24,21,55,18.40
2009,08,24,21,56,18.40
2009,08,24,21,57,18.40
2009,08,24,21,58,18.40
2009,08,24,21,59,18.40
2009,08,24,22,00,18.40
2009,08,24,22,01,18.40
2009,08,24,22,02,18.40
2009,08,24,22,03,18.30
2009,08,24,22,04,18.30
2009,08,24,22,05,18.30
2009,08,24,22,06,18.30
2009,08,24,22,07,18.30
2009,08,24,22,08,18.30
2009,08,24,22,09,18.30
2009,08,24,22,10,18.30
2009,08,24,22,11,18.30
2009,08,24,22,12,18.30
2009,08,24,22,13,18.20
2009,08,24,22,14,18.20
2009,08,24,22,15,18.20
2009,08,24,22,16,18.20
2009,08,24,22,17,18.20
2009,08,24,22,18,18.20
2009,08,24,22,19,18.20
2009,08,24,22,20,18.20
2009,08,24,22,21,18.20
2009,08,24,22,22,18.20
2009,08,24,22,23,18.20
2009,08,24,22,24,18.20
2009,08,24,22,25,18.20
2009,08,24,22,26,18.20
2009,08,24,22,27,18.20
2009,08,24,22,28,18.20
2009,08,24,22,29,18.20
2009,08,24,22,30,18.20
2009,08,24,22,31,18.20
2009,08,24,22,32,18.20
2009,08,24,22,33,18.20
2009,08,24,22,34,18.20
2009,08,24,22,35,18.20
2009,08,24,22,36,18.20
2009,08,24,22,37,18.20
2009,08,24,22,38,18.20
2009,08,24,22,39,18.20
2009,08,24,22,40,18.10